Regional Weather Roundup
Issued by NWS

Home | Current Version | Previous Version | Graphics & Text | Print | Product List | Glossary On
Versions: 1 2 3 4 5 6 7 8 9 10 11 12 13 14 15 16 17 18 19 20 21 22 23 24 25 26 27 28 29 30 31 32 33 34 35 36 37 38 39 40 41 42 43 44 45 46 47 48 49 50
000
ASUS43 KLOT 062000
RWRIL

ILLINOIS REGIONAL WEATHER ROUNDUP
NATIONAL WEATHER SERVICE CHICAGO/ROMEOVILLE IL
300 PM CDT WED MAY 06 2015

NOTE: "FAIR" INDICATES FEW OR NO CLOUDS BELOW 12,000 FEET WITH NO
SIGNIFICANT WEATHER AND/OR OBSTRUCTIONS TO VISIBILITY.

* THESE STATIONS ARE NOT UNDER NWS QUALITY CONTROL. THEY ALSO MAY NOT
  REPORT WEATHER SUCH AS PRECIPITATION OR FOG.

ILZ001-002-007-009-015-016-024-062100-
NORTHWEST ILLINOIS

CITY           SKY/WX    TMP DP  RH WIND       PRES   REMARKS
MOLINE         MOSUNNY   83  52  34 S16G23    30.02F HX  82
$$

ILZ003-004-008-010-011-017-018-062100-
NORTH CENTRAL ILLINOIS

CITY           SKY/WX    TMP DP  RH WIND       PRES   REMARKS
ROCKFORD       NOT AVBL
$$

ILZ005-006-012>014-019>023-062100-
NORTHEAST ILLINOIS

CITY           SKY/WX    TMP DP  RH WIND       PRES   REMARKS
CHICAGO-OHARE  PTSUNNY   71  56  58 NE12      30.11F
CHICAGO-MIDWAY NOT AVBL
AURORA         MOSUNNY   81  59  47 SE8G20    30.09F HX  81
WAUKEGAN       PTSUNNY   55  54  94 NE9       30.14F
DUPAGE AIRPORT SUNNY     80  60  50 S6        30.09F HX  81
WHEELING       SUNNY     64  54  69 NE10      30.14F
NORTHERLY ISL    N/A     52  51  97 MISG        N/A
$$

LMZ740>746-062100-
SOUTHERN LAKE MICHIGAN

STATION/POSITION SKY/WX   TEMP    WIND        PRES    VSBY  WAVE
                          AIR SEA DIR/SP/G                  HT/PER
                          (F)     (DEG/KT/KT) (MB)    (MI)  (FT/S)
HARRISON CRIB              46      10/  8/  9   N/A
BURNHAM HARBOR             53      10/  8/  8   N/A
CALUMET HARBOR             55     350/  5/  9   N/A
BURNS HARBOR               58      70/  7/  9 1021.0F
MICHIGAN CITY              55      30/  8/  9   N/A
MICHIGAN CITY 6N           53 53   40/  8/  8   N/A           1
ST. JOSEPH                 54 53   30/  8/  8   N/A           0
$$

ILZ025>027-034>036-040-047-049-050-058-095>099-062100-
WEST-CENTRAL ILLINOIS

CITY           SKY/WX    TMP DP  RH WIND       PRES   REMARKS
$$

ILZ028>032-037-038-041>044-048-051>054-059>061-062100-
CENTRAL ILLINOIS

CITY           SKY/WX    TMP DP  RH WIND       PRES   REMARKS
PEORIA         NOT AVBL
SPRINGFIELD    PTSUNNY   86  50  28 S20G30    30.06F HX  84
TAYLORVILLE    NOT AVBL
$$

ILZ033-039-045-046-055>057-062-063-062100-
EAST-CENTRAL ILLINOIS

CITY           SKY/WX    TMP DP  RH WIND       PRES   REMARKS
CHAMPAIGN      PTSUNNY   87  46  24 S14G25    30.09F HX  84
MATTOON        MOSUNNY   83  52  34 S12G18    30.09F HX  82
$$

ILZ079-100>102-062100-
SOUTHWEST ILLINOIS

CITY           SKY/WX    TMP DP  RH WIND       PRES   REMARKS
ALTON          MOSUNNY   84  52  32 S15G21    30.07F HX  82
CAHOKIA*       MOSUNNY   87  53  31 S14G25    30.06F HX  85
$$

ILZ064>066-069>071-074>076-080>082-084>086-088>090-092>094-062100-
SOUTH-CENTRAL ILLINOIS

CITY           SKY/WX    TMP DP  RH WIND       PRES   REMARKS
CARBONDALE     MOSUNNY   85  54  34 S9G20     30.09F HX  83
MARION         MOSUNNY   84  59  42 S12       30.10F HX  84
$$

ILZ067-068-072-073-078-083-087-091-062100-
SOUTHEAST ILLINOIS

CITY           SKY/WX    TMP DP  RH WIND       PRES   REMARKS
$$

ABBREVIATIONS USED IN REMARKS
   TC - TEMPERATURE IN CELSIUS
  WCI - WIND CHILL INDEX
   HX - HEAT INDEX
  VSB - VISIBILITY
$$




USA.gov is the U.S. government's official web portal to all federal, state and local government web resources and services.